Find Starlink 5994

NORAD ID: 56457 Int'l Des: 2023-064 Owner: SPXS Country: US Constellation: starlink operational
LEOCIRCULAR

現在のビュー

3D地球を読み込み中...

About Starlink 5994

Starlink 5994 (NORAD 56457) is a starlink constellation satellite (v1.5) launched May 10, 2023 by SPXS of US. It operates in LEO, CIRCULAR orbit with a mass of 305.00 kg.

Starlink 5994について

説明を読み込み中...

次回通過

Passes for default location (London). Set your location on the main map for personalized predictions.

高度履歴

Loading altitude history...

軌道要素

1 56457U 23064K 26171.35359612 .00000718 00000-0 67981-4 0 9994
2 56457 69.9986 245.6173 0003369 269.7166 90.3607 14.98315450170623
Epoch: Jun 20, 2026 • Age: 20 hours

現在のステータス

高度 584.9 km
速度 7.57 km/s
衛星直下点 64.66°N, 41.52°E
打ち上げ日 May 10, 2023
運用期間 3.1 years
タイプ internet

技術仕様

分類 Payload
質量 305.00 kg
乾燥質量 290.00 kg
総質量 305.00 kg
長さ 0.20 m
直径 2.80 m
スパン 9.00 m
形状 Box + pan
製造者 SPXS
バスタイプ Starlink
フェーズステータス In Orbit
所有者/国 SPXS/US

Most Searched